Time,TemperatureF,DewpointF,PressureIn,WindDirection,WindDirectionDegrees,WindSpeedMPH,WindSpeedGustMPH,Humidity,HourlyPrecipIn,Conditions,Clouds,dailyrainin,SoftwareType,DateUTC
2013-04-21 00:02:00,45.3,43.3,30.30,East,90,0.0,2.0,93,0.00,,,0.00,meteohub,2013-04-21 07:02:00,
2013-04-21 00:07:00,45.3,43.3,30.30,South,180,2.0,2.0,93,0.00,,,0.00,meteohub,2013-04-21 07:07:00,
2013-04-21 00:12:00,45.5,43.3,30.29,South,180,1.0,2.0,92,0.00,,,0.00,meteohub,2013-04-21 07:12:00,
2013-04-21 00:17:00,45.7,43.2,30.30,South,180,1.0,2.0,91,0.00,,,0.00,meteohub,2013-04-21 07:17:00,
2013-04-21 00:22:00,45.9,43.3,30.30,SW,225,1.0,2.0,91,0.00,,,0.00,meteohub,2013-04-21 07:22:00,
2013-04-21 00:27:00,45.9,43.3,30.29,SE,135,0.0,2.0,91,0.00,,,0.00,meteohub,2013-04-21 07:27:00,
2013-04-21 00:32:00,46.0,43.5,30.30,ESE,113,2.0,2.0,91,0.00,,,0.00,meteohub,2013-04-21 07:32:00,
2013-04-21 00:37:00,46.0,43.5,30.30,East,90,1.0,3.0,91,0.00,,,0.00,meteohub,2013-04-21 07:37:00,
2013-04-21 00:42:00,46.2,43.7,30.30,NE,45,0.0,3.0,91,0.00,,,0.00,meteohub,2013-04-21 07:42:00,
2013-04-21 00:47:00,46.2,43.5,30.30,NE,45,1.0,3.0,90,0.00,,,0.00,meteohub,2013-04-21 07:47:00,
2013-04-21 00:52:00,46.2,43.5,30.29,North,0,2.0,2.0,90,0.00,,,0.00,meteohub,2013-04-21 07:52:00,
2013-04-21 00:57:00,46.2,43.7,30.30,NW,315,2.0,2.0,91,0.00,,,0.00,meteohub,2013-04-21 07:57:00,
2013-04-21 01:02:00,46.4,43.7,30.30,West,270,2.0,2.0,90,0.00,,,0.00,meteohub,2013-04-21 08:02:00,
2013-04-21 01:07:00,46.4,43.7,30.29,NW,315,1.0,2.0,90,0.00,,,0.00,meteohub,2013-04-21 08:07:00,
2013-04-21 01:12:00,46.2,43.5,30.30,West,270,2.0,2.0,90,0.00,,,0.00,meteohub,2013-04-21 08:12:00,
2013-04-21 01:16:00,46.2,43.5,30.29,West,270,2.0,2.0,90,0.00,,,0.00,meteohub,2013-04-21 08:16:00,
2013-04-21 01:22:00,46.0,43.5,30.29,West,270,2.0,2.0,91,0.00,,,0.00,meteohub,2013-04-21 08:22:00,
2013-04-21 01:27:00,46.0,43.5,30.29,NW,315,1.0,2.0,91,0.00,,,0.00,meteohub,2013-04-21 08:27:00,
2013-04-21 01:32:00,45.7,43.2,30.29,NW,315,0.0,2.0,91,0.00,,,0.00,meteohub,2013-04-21 08:32:00,
2013-04-21 01:37:00,45.5,43.0,30.29,NW,315,0.0,2.0,91,0.00,,,0.00,meteohub,2013-04-21 08:37:00,
2013-04-21 01:42:00,45.3,42.8,30.29,NW,315,0.0,1.0,91,0.00,,,0.00,meteohub,2013-04-21 08:42:00,
2013-04-21 01:47:00,45.3,43.2,30.29,NW,315,0.0,1.0,92,0.00,,,0.00,meteohub,2013-04-21 08:47:00,
2013-04-21 01:52:00,45.5,43.3,30.29,West,270,1.0,2.0,92,0.00,,,0.00,meteohub,2013-04-21 08:52:00,
2013-04-21 01:57:00,45.7,43.5,30.29,West,270,0.0,2.0,92,0.00,,,0.00,meteohub,2013-04-21 08:57:00,
2013-04-21 02:02:00,45.7,43.5,30.29,West,270,1.0,2.0,92,0.00,,,0.00,meteohub,2013-04-21 09:02:00,
2013-04-21 02:07:00,45.5,43.3,30.29,SW,225,0.0,2.0,92,0.00,,,0.00,meteohub,2013-04-21 09:07:00,
2013-04-21 02:12:00,45.7,43.5,30.29,SE,135,1.0,2.0,92,0.00,,,0.00,meteohub,2013-04-21 09:12:00,
2013-04-21 02:17:00,45.7,43.5,30.30,East,90,2.0,2.0,92,0.00,,,0.00,meteohub,2013-04-21 09:17:00,
2013-04-21 02:22:00,45.9,43.7,30.30,SE,135,3.0,3.0,92,0.00,,,0.00,meteohub,2013-04-21 09:22:00,
2013-04-21 02:27:00,46.0,43.9,30.30,SE,135,4.0,4.0,92,0.00,,,0.00,meteohub,2013-04-21 09:27:00,
2013-04-21 02:32:00,46.2,43.7,30.30,SE,135,3.0,4.0,91,0.00,,,0.00,meteohub,2013-04-21 09:32:00,
2013-04-21 02:37:00,46.4,43.7,30.30,South,180,3.0,4.0,90,0.00,,,0.00,meteohub,2013-04-21 09:37:00,
2013-04-21 02:42:00,46.4,43.7,30.30,South,180,2.0,4.0,90,0.00,,,0.00,meteohub,2013-04-21 09:42:00,
2013-04-21 02:47:00,46.6,43.5,30.29,South,180,2.0,4.0,89,0.00,,,0.00,meteohub,2013-04-21 09:47:00,
2013-04-21 02:52:00,46.6,43.5,30.29,South,180,2.0,4.0,89,0.00,,,0.00,meteohub,2013-04-21 09:52:00,
2013-04-21 02:57:00,46.6,43.5,30.30,SE,135,2.0,4.0,89,0.00,,,0.00,meteohub,2013-04-21 09:57:00,
2013-04-21 03:02:00,46.6,43.5,30.29,South,180,2.0,4.0,89,0.00,,,0.00,meteohub,2013-04-21 10:02:00,
2013-04-21 03:07:00,46.6,43.9,30.29,South,180,2.0,4.0,90,0.00,,,0.00,meteohub,2013-04-21 10:07:00,
2013-04-21 03:12:00,46.6,43.9,30.29,South,180,3.0,3.0,90,0.00,,,0.00,meteohub,2013-04-21 10:12:00,
2013-04-21 03:17:00,46.6,43.9,30.29,South,180,2.0,4.0,90,0.00,,,0.00,meteohub,2013-04-21 10:17:00,
2013-04-21 03:22:00,46.6,43.9,30.29,South,180,4.0,4.0,90,0.00,,,0.00,meteohub,2013-04-21 10:22:00,
2013-04-21 03:27:00,46.4,43.7,30.29,NW,315,2.0,4.0,90,0.00,,,0.00,meteohub,2013-04-21 10:27:00,
2013-04-21 03:32:00,46.4,43.9,30.29,NW,315,2.0,4.0,91,0.00,,,0.00,meteohub,2013-04-21 10:32:00,
2013-04-21 03:37:00,46.4,44.2,30.29,North,0,2.0,4.0,92,0.00,,,0.00,meteohub,2013-04-21 10:37:00,
2013-04-21 03:42:00,46.2,44.2,30.29,North,0,2.0,2.0,93,0.00,,,0.00,meteohub,2013-04-21 10:42:00,
2013-04-21 03:47:00,46.0,44.4,30.28,North,0,2.0,2.0,94,0.00,,,0.00,meteohub,2013-04-21 10:47:00,
2013-04-21 03:52:00,46.2,44.8,30.29,North,0,2.0,2.0,95,0.00,,,0.00,meteohub,2013-04-21 10:52:00,
2013-04-21 03:57:00,46.0,44.6,30.28,North,0,2.0,2.0,95,0.00,,,0.00,meteohub,2013-04-21 10:57:00,
2013-04-21 04:02:00,46.0,44.6,30.28,West,270,2.0,2.0,95,0.00,,,0.00,meteohub,2013-04-21 11:02:00,
2013-04-21 04:07:00,46.2,44.6,30.28,West,270,2.0,2.0,94,0.00,,,0.00,meteohub,2013-04-21 11:07:00,
2013-04-21 04:12:00,46.2,44.2,30.28,SW,225,2.0,2.0,93,0.00,,,0.00,meteohub,2013-04-21 11:12:00,
2013-04-21 04:17:00,46.2,43.7,30.28,SW,225,2.0,3.0,91,0.00,,,0.00,meteohub,2013-04-21 11:17:00,
2013-04-21 04:22:00,46.2,43.7,30.28,SW,225,2.0,3.0,91,0.00,,,0.00,meteohub,2013-04-21 11:22:00,
2013-04-21 04:27:00,46.0,43.3,30.27,SW,225,2.0,3.0,90,0.00,,,0.00,meteohub,2013-04-21 11:27:00,
2013-04-21 04:32:00,46.0,43.3,30.27,South,180,2.0,3.0,90,0.00,,,0.00,meteohub,2013-04-21 11:32:00,
2013-04-21 04:37:00,46.0,43.3,30.28,South,180,1.0,2.0,90,0.00,,,0.00,meteohub,2013-04-21 11:37:00,
2013-04-21 04:42:00,46.0,43.3,30.28,West,270,2.0,2.0,90,0.00,,,0.00,meteohub,2013-04-21 11:42:00,
2013-04-21 04:47:00,46.0,43.3,30.28,NW,315,1.0,2.0,90,0.00,,,0.00,meteohub,2013-04-21 11:47:00,
2013-04-21 04:52:00,46.0,43.3,30.27,West,270,2.0,2.0,90,0.00,,,0.00,meteohub,2013-04-21 11:52:00,
2013-04-21 04:57:00,46.0,43.5,30.28,West,270,2.0,4.0,91,0.00,,,0.00,meteohub,2013-04-21 11:57:00,
2013-04-21 05:02:00,46.0,43.5,30.27,West,270,3.0,4.0,91,0.00,,,0.00,meteohub,2013-04-21 12:02:00,
2013-04-21 05:07:00,46.0,43.5,30.28,NW,315,2.0,4.0,91,0.00,,,0.00,meteohub,2013-04-21 12:07:00,
2013-04-21 05:11:00,46.0,43.9,30.28,West,270,2.0,4.0,92,0.00,,,0.00,meteohub,2013-04-21 12:11:00,
2013-04-21 05:16:00,46.0,43.5,30.27,West,270,2.0,4.0,91,0.00,,,0.00,meteohub,2013-04-21 12:16:00,
2013-04-21 05:21:00,46.0,43.5,30.28,NE,45,2.0,2.0,91,0.00,,,0.00,meteohub,2013-04-21 12:21:00,
2013-04-21 05:27:00,46.0,43.5,30.28,East,90,2.0,2.0,91,0.00,,,0.00,meteohub,2013-04-21 12:27:00,
2013-04-21 05:32:00,46.0,43.5,30.28,East,90,1.0,2.0,91,0.00,,,0.00,meteohub,2013-04-21 12:32:00,
2013-04-21 05:37:00,46.0,43.5,30.28,North,0,1.0,2.0,91,0.00,,,0.00,meteohub,2013-04-21 12:37:00,
2013-04-21 05:41:00,46.0,44.1,30.28,NW,315,2.0,2.0,93,0.00,,,0.00,meteohub,2013-04-21 12:41:00,
2013-04-21 05:46:00,46.0,44.1,30.27,North,0,2.0,2.0,93,0.00,,,0.00,meteohub,2013-04-21 12:46:00,
2013-04-21 05:52:00,46.0,44.1,30.27,North,0,2.0,2.0,93,0.00,,,0.00,meteohub,2013-04-21 12:52:00,
2013-04-21 05:57:00,46.2,44.6,30.28,NE,45,2.0,2.0,94,0.00,,,0.00,meteohub,2013-04-21 12:57:00,
2013-04-21 06:02:00,46.0,44.4,30.28,NE,45,3.0,3.0,94,0.00,,,0.00,meteohub,2013-04-21 13:02:00,
2013-04-21 06:07:00,46.0,44.6,30.28,North,0,2.0,4.0,95,0.00,,,0.00,meteohub,2013-04-21 13:07:00,
2013-04-21 06:12:00,45.9,44.2,30.28,North,0,2.0,4.0,94,0.00,,,0.00,meteohub,2013-04-21 13:12:00,
2013-04-21 06:17:00,46.0,44.6,30.28,North,0,3.0,4.0,95,0.00,,,0.00,meteohub,2013-04-21 13:17:00,
2013-04-21 06:22:00,46.0,44.6,30.27,NE,45,3.0,3.0,95,0.00,,,0.00,meteohub,2013-04-21 13:22:00,
2013-04-21 06:27:00,45.9,44.4,30.28,NE,45,4.0,4.0,95,0.00,,,0.00,meteohub,2013-04-21 13:27:00,
2013-04-21 06:32:00,46.0,45.0,30.29,NE,45,4.0,4.0,96,0.00,,,0.00,meteohub,2013-04-21 13:32:00,
2013-04-21 06:37:00,45.9,44.8,30.28,NE,45,3.0,4.0,96,0.00,,,0.00,meteohub,2013-04-21 13:37:00,
2013-04-21 06:42:00,46.0,45.0,30.28,NE,45,3.0,4.0,96,0.00,,,0.00,meteohub,2013-04-21 13:42:00,
2013-04-21 06:47:00,46.0,44.6,30.28,NE,45,3.0,4.0,95,0.00,,,0.00,meteohub,2013-04-21 13:47:00,
2013-04-21 06:52:00,46.0,44.1,30.28,NE,45,3.0,5.0,93,0.00,,,0.00,meteohub,2013-04-21 13:52:00,
2013-04-21 06:57:00,46.2,44.2,30.28,NE,45,2.0,5.0,93,0.00,,,0.00,meteohub,2013-04-21 13:57:00,
2013-04-21 07:02:00,46.4,44.2,30.28,NE,45,4.0,5.0,92,0.00,,,0.00,meteohub,2013-04-21 14:02:00,
2013-04-21 07:07:00,46.4,44.4,30.29,NE,45,3.0,4.0,93,0.00,,,0.00,meteohub,2013-04-21 14:07:00,
2013-04-21 07:12:00,46.4,43.9,30.29,NE,45,3.0,4.0,91,0.00,,,0.00,meteohub,2013-04-21 14:12:00,
2013-04-21 07:17:00,46.6,43.9,30.29,NE,45,3.0,4.0,90,0.00,,,0.00,meteohub,2013-04-21 14:17:00,
2013-04-21 07:22:00,46.8,43.7,30.29,NE,45,3.0,4.0,89,0.00,,,0.00,meteohub,2013-04-21 14:22:00,
2013-04-21 07:27:00,46.8,43.3,30.29,NE,45,3.0,4.0,88,0.00,,,0.00,meteohub,2013-04-21 14:27:00,
2013-04-21 07:32:00,47.1,43.5,30.29,NE,45,3.0,4.0,87,0.00,,,0.00,meteohub,2013-04-21 14:32:00,
2013-04-21 07:37:00,47.1,42.8,30.29,North,0,3.0,4.0,85,0.00,,,0.00,meteohub,2013-04-21 14:37:00,
2013-04-21 07:42:00,47.3,42.8,30.29,East,90,4.0,4.0,84,0.00,,,0.00,meteohub,2013-04-21 14:42:00,
2013-04-21 07:47:00,47.3,43.0,30.30,NE,45,4.0,4.0,85,0.00,,,0.00,meteohub,2013-04-21 14:47:00,
2013-04-21 07:52:00,47.3,43.0,30.30,NE,45,4.0,5.0,85,0.00,,,0.00,meteohub,2013-04-21 14:52:00,
2013-04-21 07:57:00,47.5,43.2,30.29,North,0,2.0,5.0,85,0.00,,,0.00,meteohub,2013-04-21 14:57:00,
2013-04-21 08:02:00,47.8,43.2,30.29,North,0,2.0,5.0,84,0.00,,,0.00,meteohub,2013-04-21 15:02:00,
2013-04-21 08:07:00,48.4,43.5,30.29,NW,315,2.0,4.0,83,0.00,,,0.00,meteohub,2013-04-21 15:07:00,
2013-04-21 08:12:00,48.9,43.3,30.30,NE,45,4.0,4.0,81,0.00,,,0.00,meteohub,2013-04-21 15:12:00,
2013-04-21 08:17:00,48.9,43.7,30.29,NE,45,3.0,4.0,82,0.00,,,0.00,meteohub,2013-04-21 15:17:00,
2013-04-21 08:22:00,48.6,43.3,30.29,East,90,4.0,5.0,82,0.00,,,0.00,meteohub,2013-04-21 15:22:00,
2013-04-21 08:27:00,48.4,43.2,30.29,NE,45,5.0,6.0,82,0.00,,,0.00,meteohub,2013-04-21 15:27:00,
2013-04-21 08:32:00,48.4,43.5,30.29,East,90,5.0,6.0,83,0.00,,,0.00,meteohub,2013-04-21 15:32:00,
2013-04-21 08:37:00,48.4,43.7,30.29,NE,45,4.0,7.0,84,0.00,,,0.00,meteohub,2013-04-21 15:37:00,
2013-04-21 08:42:00,48.7,43.9,30.29,NE,45,4.0,7.0,83,0.00,,,0.00,meteohub,2013-04-21 15:42:00,
2013-04-21 08:47:00,49.1,43.9,30.29,NE,45,2.0,7.0,82,0.00,,,0.00,meteohub,2013-04-21 15:47:00,
2013-04-21 08:52:00,49.1,43.5,30.29,North,0,3.0,6.0,81,0.00,,,0.00,meteohub,2013-04-21 15:52:00,
2013-04-21 08:57:00,49.5,43.9,30.28,SW,225,2.0,6.0,81,0.00,,,0.00,meteohub,2013-04-21 15:57:00,
2013-04-21 09:02:00,50.2,44.6,30.28,North,0,3.0,6.0,81,0.00,,,0.00,meteohub,2013-04-21 16:02:00,
2013-04-21 09:07:00,50.4,44.4,30.29,North,0,2.0,5.0,80,0.00,,,0.00,meteohub,2013-04-21 16:07:00,
2013-04-21 09:12:00,50.7,44.4,30.28,North,0,3.0,4.0,79,0.00,,,0.00,meteohub,2013-04-21 16:12:00,
2013-04-21 09:17:00,51.4,44.8,30.29,NE,45,1.0,4.0,78,0.00,,,0.00,meteohub,2013-04-21 16:17:00,
2013-04-21 09:22:00,51.6,43.9,30.30,NW,315,4.0,4.0,75,0.00,,,0.00,meteohub,2013-04-21 16:22:00,
2013-04-21 09:27:00,51.1,43.7,30.29,NNW,338,5.0,5.0,76,0.00,,,0.00,meteohub,2013-04-21 16:27:00,
2013-04-21 09:32:00,51.1,44.4,30.28,West,270,2.0,5.0,78,0.00,,,0.00,meteohub,2013-04-21 16:32:00,
2013-04-21 09:37:00,51.6,44.2,30.28,North,0,4.0,5.0,76,0.00,,,0.00,meteohub,2013-04-21 16:37:00,
2013-04-21 09:42:00,52.0,44.2,30.28,NW,315,6.0,6.0,75,0.00,,,0.00,meteohub,2013-04-21 16:42:00,
2013-04-21 09:47:00,51.4,44.4,30.28,NE,45,7.0,7.0,77,0.00,,,0.00,meteohub,2013-04-21 16:47:00,
2013-04-21 09:52:00,51.1,44.8,30.28,NE,45,3.0,7.0,79,0.00,,,0.00,meteohub,2013-04-21 16:52:00,
2013-04-21 09:57:00,51.1,44.4,30.27,East,90,2.0,7.0,78,0.00,,,0.00,meteohub,2013-04-21 16:57:00,
2013-04-21 10:02:00,51.3,45.0,30.28,NE,45,3.0,7.0,79,0.00,,,0.00,meteohub,2013-04-21 17:02:00,
2013-04-21 10:07:00,51.1,44.8,30.28,East,90,4.0,4.0,79,0.00,,,0.00,meteohub,2013-04-21 17:07:00,
2013-04-21 10:12:00,50.9,45.0,30.28,East,90,3.0,6.0,80,0.00,,,0.00,meteohub,2013-04-21 17:12:00,
2013-04-21 10:17:00,50.7,44.8,30.28,East,90,4.0,7.0,80,0.00,,,0.00,meteohub,2013-04-21 17:17:00,
2013-04-21 10:22:00,50.9,45.0,30.28,NE,45,6.0,7.0,80,0.00,,,0.00,meteohub,2013-04-21 17:22:00,
2013-04-21 10:27:00,51.1,45.1,30.28,East,90,6.0,7.0,80,0.00,,,0.00,meteohub,2013-04-21 17:27:00,
2013-04-21 10:32:00,50.9,45.3,30.27,NE,45,8.0,8.0,81,0.00,,,0.00,meteohub,2013-04-21 17:32:00,
2013-04-21 10:37:00,51.1,45.1,30.28,North,0,8.0,8.0,80,0.00,,,0.00,meteohub,2013-04-21 17:37:00,
2013-04-21 10:42:00,51.4,45.1,30.28,North,0,9.0,9.0,79,0.00,,,0.00,meteohub,2013-04-21 17:42:00,
2013-04-21 10:47:00,51.4,44.8,30.28,NNE,23,8.0,9.0,78,0.00,,,0.00,meteohub,2013-04-21 17:47:00,
2013-04-21 10:52:00,51.4,46.4,30.29,ENE,68,10.0,10.0,83,0.00,,,0.00,meteohub,2013-04-21 17:52:00,
2013-04-21 10:57:00,50.9,45.9,30.29,NE,45,7.0,11.0,83,0.00,,,0.00,meteohub,2013-04-21 17:57:00,
2013-04-21 11:02:00,50.9,45.7,30.29,East,90,8.0,11.0,82,0.00,,,0.00,meteohub,2013-04-21 18:02:00,
2013-04-21 11:07:00,51.3,45.7,30.28,North,0,5.0,11.0,81,0.00,,,0.00,meteohub,2013-04-21 18:07:00,
2013-04-21 11:12:00,51.4,46.2,30.28,NE,45,6.0,9.0,82,0.00,,,0.00,meteohub,2013-04-21 18:12:00,
2013-04-21 11:17:00,52.0,45.3,30.28,NW,315,11.0,11.0,78,0.00,,,0.00,meteohub,2013-04-21 18:17:00,
2013-04-21 11:22:00,52.0,46.0,30.28,North,0,9.0,15.0,80,0.00,,,0.00,meteohub,2013-04-21 18:22:00,
2013-04-21 11:27:00,52.7,46.0,30.28,North,0,11.0,15.0,78,0.00,,,0.00,meteohub,2013-04-21 18:27:00,
2013-04-21 11:32:00,52.9,45.9,30.27,North,0,8.0,15.0,77,0.00,,,0.00,meteohub,2013-04-21 18:32:00,
2013-04-21 11:37:00,52.7,45.3,30.27,NE,45,9.0,14.0,76,0.00,,,0.00,meteohub,2013-04-21 18:37:00,
2013-04-21 11:42:00,53.2,45.9,30.27,NW,315,5.0,13.0,76,0.00,,,0.00,meteohub,2013-04-21 18:42:00,
2013-04-21 11:47:00,53.4,45.7,30.27,North,0,13.0,13.0,75,0.00,,,0.00,meteohub,2013-04-21 18:47:00,
2013-04-21 11:52:00,53.2,45.5,30.28,North,0,13.0,13.0,75,0.00,,,0.00,meteohub,2013-04-21 18:52:00,
2013-04-21 11:57:00,53.8,46.0,30.28,North,0,8.0,13.0,75,0.00,,,0.00,meteohub,2013-04-21 18:57:00,
2013-04-21 12:02:00,53.1,45.7,30.28,North,0,8.0,13.0,76,0.00,,,0.00,meteohub,2013-04-21 19:02:00,
2013-04-21 12:07:00,53.4,46.0,30.28,North,0,9.0,13.0,76,0.00,,,0.00,meteohub,2013-04-21 19:07:00,
2013-04-21 12:12:00,53.6,45.9,30.28,North,0,11.0,12.0,75,0.00,,,0.00,meteohub,2013-04-21 19:12:00,
2013-04-21 12:17:00,53.6,46.2,30.27,NNE,23,10.0,12.0,76,0.00,,,0.00,meteohub,2013-04-21 19:17:00,
2013-04-21 12:22:00,53.8,46.0,30.27,North,0,8.0,12.0,75,0.00,,,0.00,meteohub,2013-04-21 19:22:00,
2013-04-21 12:27:00,53.8,45.7,30.27,North,0,9.0,11.0,74,0.00,,,0.00,meteohub,2013-04-21 19:27:00,
2013-04-21 12:32:00,54.7,46.2,30.27,NE,45,8.0,11.0,73,0.00,,,0.00,meteohub,2013-04-21 19:32:00,
2013-04-21 12:37:00,54.7,45.5,30.27,NW,315,8.0,11.0,71,0.00,,,0.00,meteohub,2013-04-21 19:37:00,
2013-04-21 12:42:00,55.4,45.9,30.27,NW,315,9.0,11.0,70,0.00,,,0.00,meteohub,2013-04-21 19:42:00,
2013-04-21 12:47:00,55.4,45.3,30.27,North,0,7.0,11.0,69,0.00,,,0.00,meteohub,2013-04-21 19:47:00,
2013-04-21 12:52:00,55.9,45.9,30.26,NW,315,8.0,11.0,69,0.00,,,0.00,meteohub,2013-04-21 19:52:00,
2013-04-21 12:57:00,55.4,45.9,30.26,North,0,7.0,11.0,70,0.00,,,0.00,meteohub,2013-04-21 19:57:00,
2013-04-21 13:02:00,55.8,46.0,30.26,North,0,8.0,11.0,70,0.00,,,0.00,meteohub,2013-04-21 20:02:00,
2013-04-21 13:07:00,55.8,45.7,30.26,North,0,10.0,11.0,69,0.00,,,0.00,meteohub,2013-04-21 20:07:00,
2013-04-21 13:12:00,56.1,46.0,30.26,North,0,11.0,11.0,69,0.00,,,0.00,meteohub,2013-04-21 20:12:00,
2013-04-21 13:17:00,56.5,46.0,30.25,North,0,11.0,11.0,68,0.00,,,0.00,meteohub,2013-04-21 20:17:00,
2013-04-21 13:22:00,57.0,46.2,30.25,North,0,6.0,11.0,67,0.00,,,0.00,meteohub,2013-04-21 20:22:00,
2013-04-21 13:27:00,57.7,46.0,30.25,NE,45,7.0,11.0,65,0.00,,,0.00,meteohub,2013-04-21 20:27:00,
2013-04-21 13:32:00,57.6,46.2,30.25,North,0,5.0,11.0,66,0.00,,,0.00,meteohub,2013-04-21 20:32:00,
2013-04-21 13:37:00,57.2,45.9,30.25,NE,45,8.0,9.0,66,0.00,,,0.00,meteohub,2013-04-21 20:37:00,
2013-04-21 13:42:00,57.4,46.9,30.25,North,0,5.0,10.0,68,0.00,,,0.00,meteohub,2013-04-21 20:42:00,
2013-04-21 13:47:00,57.7,46.9,30.25,NE,45,4.0,10.0,67,0.00,,,0.00,meteohub,2013-04-21 20:47:00,
2013-04-21 13:52:00,57.7,46.4,30.25,NW,315,8.0,10.0,66,0.00,,,0.00,meteohub,2013-04-21 20:52:00,
2013-04-21 13:57:00,57.6,47.1,30.25,NE,45,7.0,11.0,68,0.00,,,0.00,meteohub,2013-04-21 20:57:00,
2013-04-21 14:02:00,58.1,47.1,30.25,North,0,7.0,11.0,67,0.00,,,0.00,meteohub,2013-04-21 21:02:00,
2013-04-21 14:07:00,58.3,46.9,30.25,North,0,7.0,11.0,66,0.00,,,0.00,meteohub,2013-04-21 21:07:00,
2013-04-21 14:12:00,58.3,46.2,30.25,North,0,7.0,8.0,64,0.00,,,0.00,meteohub,2013-04-21 21:12:00,
2013-04-21 14:17:00,57.9,45.0,30.25,North,0,5.0,11.0,62,0.00,,,0.00,meteohub,2013-04-21 21:17:00,
2013-04-21 14:22:00,57.6,45.9,30.25,NE,45,4.0,11.0,65,0.00,,,0.00,meteohub,2013-04-21 21:22:00,
2013-04-21 14:27:00,57.6,45.9,30.25,East,90,4.0,11.0,65,0.00,,,0.00,meteohub,2013-04-21 21:27:00,
2013-04-21 14:32:00,57.6,47.5,30.25,East,90,5.0,8.0,69,0.00,,,0.00,meteohub,2013-04-21 21:32:00,
2013-04-21 14:37:00,57.4,46.9,30.25,NE,45,5.0,8.0,68,0.00,,,0.00,meteohub,2013-04-21 21:37:00,
2013-04-21 14:42:00,57.9,47.5,30.25,East,90,3.0,8.0,68,0.00,,,0.00,meteohub,2013-04-21 21:42:00,
2013-04-21 14:46:00,58.3,48.2,30.25,NE,45,5.0,7.0,69,0.00,,,0.00,meteohub,2013-04-21 21:46:00,
2013-04-21 14:51:00,58.3,47.3,30.25,NE,45,8.0,8.0,67,0.00,,,0.00,meteohub,2013-04-21 21:51:00,
2013-04-21 14:57:00,58.6,47.3,30.24,North,0,2.0,9.0,66,0.00,,,0.00,meteohub,2013-04-21 21:57:00,
2013-04-21 15:02:00,59.0,47.7,30.24,NE,45,11.0,11.0,66,0.00,,,0.00,meteohub,2013-04-21 22:02:00,
2013-04-21 15:07:00,59.2,47.8,30.24,East,90,5.0,11.0,66,0.00,,,0.00,meteohub,2013-04-21 22:07:00,
2013-04-21 15:12:00,59.7,48.7,30.24,East,90,4.0,11.0,67,0.00,,,0.00,meteohub,2013-04-21 22:12:00,
2013-04-21 15:17:00,59.9,48.0,30.24,East,90,8.0,11.0,65,0.00,,,0.00,meteohub,2013-04-21 22:17:00,
2013-04-21 15:22:00,59.2,47.8,30.24,East,90,6.0,10.0,66,0.00,,,0.00,meteohub,2013-04-21 22:22:00,
2013-04-21 15:27:00,59.0,48.4,30.24,East,90,6.0,10.0,68,0.00,,,0.00,meteohub,2013-04-21 22:27:00,
2013-04-21 15:32:00,58.6,48.2,30.25,East,90,4.0,11.0,68,0.00,,,0.00,meteohub,2013-04-21 22:32:00,
2013-04-21 15:37:00,59.0,48.4,30.24,East,90,6.0,11.0,68,0.00,,,0.00,meteohub,2013-04-21 22:37:00,
2013-04-21 15:42:00,59.4,49.6,30.24,East,90,6.0,9.0,70,0.00,,,0.00,meteohub,2013-04-21 22:42:00,
2013-04-21 15:47:00,59.4,48.7,30.24,East,90,8.0,8.0,68,0.00,,,0.00,meteohub,2013-04-21 22:47:00,
2013-04-21 15:52:00,58.8,48.7,30.23,East,90,4.0,8.0,69,0.00,,,0.00,meteohub,2013-04-21 22:52:00,
2013-04-21 15:57:00,59.2,49.1,30.23,SE,135,8.0,10.0,69,0.00,,,0.00,meteohub,2013-04-21 22:57:00,
2013-04-21 16:02:00,58.8,49.8,30.23,East,90,5.0,10.0,72,0.00,,,0.00,meteohub,2013-04-21 23:02:00,
2013-04-21 16:07:00,58.1,48.4,30.23,SE,135,8.0,9.0,70,0.00,,,0.00,meteohub,2013-04-21 23:07:00,
2013-04-21 16:12:00,58.3,49.3,30.24,ESE,113,6.0,11.0,72,0.00,,,0.00,meteohub,2013-04-21 23:12:00,
2013-04-21 16:17:00,58.3,50.0,30.23,East,90,8.0,11.0,74,0.00,,,0.00,meteohub,2013-04-21 23:17:00,
2013-04-21 16:22:00,57.9,48.9,30.23,SE,135,9.0,11.0,72,0.00,,,0.00,meteohub,2013-04-21 23:22:00,
2013-04-21 16:26:00,57.6,48.9,30.23,SE,135,9.0,10.0,73,0.00,,,0.00,meteohub,2013-04-21 23:26:00,
2013-04-21 16:31:00,57.6,49.6,30.23,SE,135,8.0,10.0,75,0.00,,,0.00,meteohub,2013-04-21 23:31:00,
2013-04-21 16:36:00,58.3,50.0,30.23,SE,135,8.0,10.0,74,0.00,,,0.00,meteohub,2013-04-21 23:36:00,
2013-04-21 16:42:00,57.2,48.9,30.23,SE,135,8.0,10.0,74,0.00,,,0.00,meteohub,2013-04-21 23:42:00,
2013-04-21 16:46:00,57.2,49.3,30.23,SE,135,9.0,10.0,75,0.00,,,0.00,meteohub,2013-04-21 23:46:00,
2013-04-21 16:51:00,57.0,49.5,30.23,SE,135,8.0,10.0,76,0.00,,,0.00,meteohub,2013-04-21 23:51:00,
2013-04-21 16:57:00,56.8,49.6,30.23,SE,135,8.0,9.0,77,0.00,,,0.00,meteohub,2013-04-21 23:57:00,
2013-04-21 17:02:00,56.8,49.3,30.23,SE,135,8.0,9.0,76,0.00,,,0.00,meteohub,2013-04-22 00:02:00,
2013-04-21 17:07:00,57.0,49.8,30.23,East,90,7.0,9.0,77,0.00,,,0.00,meteohub,2013-04-22 00:07:00,
2013-04-21 17:12:00,57.0,50.2,30.23,East,90,8.0,9.0,78,0.00,,,0.00,meteohub,2013-04-22 00:12:00,
2013-04-21 17:17:00,56.8,49.6,30.23,SE,135,8.0,9.0,77,0.00,,,0.00,meteohub,2013-04-22 00:17:00,
2013-04-21 17:22:00,56.7,49.5,30.23,SE,135,9.0,9.0,77,0.00,,,0.00,meteohub,2013-04-22 00:22:00,
2013-04-21 17:27:00,56.3,49.5,30.23,SE,135,7.0,11.0,78,0.00,,,0.00,meteohub,2013-04-22 00:27:00,
2013-04-21 17:31:00,56.3,49.1,30.23,SE,135,8.0,11.0,77,0.00,,,0.00,meteohub,2013-04-22 00:31:00,
2013-04-21 17:37:00,56.3,49.1,30.23,SE,135,8.0,11.0,77,0.00,,,0.00,meteohub,2013-04-22 00:37:00,
2013-04-21 17:42:00,56.3,49.1,30.23,SE,135,8.0,10.0,77,0.00,,,0.00,meteohub,2013-04-22 00:42:00,
2013-04-21 17:47:00,56.1,48.9,30.23,SE,135,9.0,10.0,77,0.00,,,0.00,meteohub,2013-04-22 00:47:00,
2013-04-21 17:52:00,56.1,48.7,30.23,SE,135,9.0,9.0,76,0.00,,,0.00,meteohub,2013-04-22 00:52:00,
2013-04-21 17:57:00,56.1,49.3,30.23,SE,135,8.0,9.0,78,0.00,,,0.00,meteohub,2013-04-22 00:57:00,
2013-04-21 18:02:00,55.9,49.1,30.23,SE,135,5.0,9.0,78,0.00,,,0.00,meteohub,2013-04-22 01:02:00,
2013-04-21 18:07:00,55.9,49.5,30.23,SE,135,8.0,9.0,79,0.00,,,0.00,meteohub,2013-04-22 01:07:00,
2013-04-21 18:12:00,55.8,48.9,30.23,SE,135,8.0,9.0,78,0.00,,,0.00,meteohub,2013-04-22 01:12:00,
2013-04-21 18:17:00,55.8,49.3,30.23,SE,135,8.0,9.0,79,0.00,,,0.00,meteohub,2013-04-22 01:17:00,
2013-04-21 18:22:00,55.9,49.5,30.22,SE,135,6.0,9.0,79,0.00,,,0.00,meteohub,2013-04-22 01:22:00,
2013-04-21 18:27:00,55.9,49.5,30.22,SE,135,7.0,9.0,79,0.00,,,0.00,meteohub,2013-04-22 01:27:00,
2013-04-21 18:32:00,55.9,49.5,30.23,SSE,158,6.0,8.0,79,0.00,,,0.00,meteohub,2013-04-22 01:32:00,
2013-04-21 18:37:00,55.9,49.5,30.22,SE,135,5.0,7.0,79,0.00,,,0.00,meteohub,2013-04-22 01:37:00,
2013-04-21 18:42:00,55.9,49.5,30.22,SE,135,6.0,7.0,79,0.00,,,0.00,meteohub,2013-04-22 01:42:00,
2013-04-21 18:47:00,55.8,49.6,30.22,SE,135,4.0,6.0,80,0.00,,,0.00,meteohub,2013-04-22 01:47:00,
2013-04-21 18:52:00,55.8,50.0,30.22,SE,135,4.0,6.0,81,0.00,,,0.00,meteohub,2013-04-22 01:52:00,
2013-04-21 18:57:00,55.8,50.0,30.22,SE,135,4.0,6.0,81,0.00,,,0.00,meteohub,2013-04-22 01:57:00,
2013-04-21 19:02:00,55.8,50.7,30.22,East,90,4.0,5.0,83,0.00,,,0.00,meteohub,2013-04-22 02:02:00,
2013-04-21 19:07:00,55.4,50.7,30.22,East,90,4.0,5.0,84,0.00,,,0.00,meteohub,2013-04-22 02:07:00,
2013-04-21 19:12:00,55.0,50.4,30.22,East,90,4.0,7.0,84,0.00,,,0.00,meteohub,2013-04-22 02:12:00,
2013-04-21 19:17:00,54.9,50.2,30.22,East,90,4.0,7.0,84,0.00,,,0.00,meteohub,2013-04-22 02:17:00,
2013-04-21 19:22:00,54.9,49.8,30.23,East,90,4.0,7.0,83,0.00,,,0.00,meteohub,2013-04-22 02:22:00,
2013-04-21 19:27:00,54.7,49.6,30.22,East,90,4.0,6.0,83,0.00,,,0.00,meteohub,2013-04-22 02:27:00,
2013-04-21 19:32:00,54.7,49.6,30.23,East,90,4.0,5.0,83,0.00,,,0.00,meteohub,2013-04-22 02:32:00,
2013-04-21 19:37:00,54.5,49.5,30.23,East,90,4.0,7.0,83,0.00,,,0.00,meteohub,2013-04-22 02:37:00,
2013-04-21 19:42:00,54.3,49.8,30.23,East,90,8.0,8.0,85,0.00,,,0.00,meteohub,2013-04-22 02:42:00,
2013-04-21 19:47:00,54.0,49.8,30.23,East,90,4.0,8.0,86,0.00,,,0.00,meteohub,2013-04-22 02:47:00,
2013-04-21 19:52:00,53.6,50.2,30.22,NE,45,6.0,8.0,88,0.00,,,0.00,meteohub,2013-04-22 02:52:00,
2013-04-21 19:57:00,53.4,50.0,30.22,East,90,4.0,8.0,88,0.00,,,0.00,meteohub,2013-04-22 02:57:00,
2013-04-21 20:02:00,53.2,50.7,30.23,NE,45,4.0,8.0,91,0.00,,,0.00,meteohub,2013-04-22 03:02:00,
2013-04-21 20:07:00,53.2,50.9,30.23,NE,45,8.0,8.0,92,0.00,,,0.00,meteohub,2013-04-22 03:07:00,
2013-04-21 20:12:00,53.1,50.7,30.22,East,90,7.0,8.0,92,0.00,,,0.00,meteohub,2013-04-22 03:12:00,
2013-04-21 20:17:00,53.1,50.7,30.23,East,90,4.0,8.0,92,0.00,,,0.00,meteohub,2013-04-22 03:17:00,
2013-04-21 20:22:00,53.2,50.7,30.23,SE,135,6.0,8.0,91,0.00,,,0.00,meteohub,2013-04-22 03:22:00,
2013-04-21 20:27:00,53.4,50.9,30.23,SE,135,5.0,7.0,91,0.00,,,0.00,meteohub,2013-04-22 03:27:00,
2013-04-21 20:32:00,53.4,50.5,30.23,SE,135,5.0,6.0,90,0.00,,,0.00,meteohub,2013-04-22 03:32:00,
2013-04-21 20:37:00,53.6,50.7,30.23,SE,135,4.0,6.0,90,0.00,,,0.00,meteohub,2013-04-22 03:37:00,
2013-04-21 20:42:00,53.4,50.5,30.23,SSE,158,4.0,6.0,90,0.00,,,0.00,meteohub,2013-04-22 03:42:00,
2013-04-21 20:47:00,53.4,50.0,30.24,SE,135,3.0,5.0,88,0.00,,,0.00,meteohub,2013-04-22 03:47:00,
2013-04-21 20:52:00,53.4,50.0,30.24,SSE,158,3.0,5.0,88,0.00,,,0.00,meteohub,2013-04-22 03:52:00,
2013-04-21 20:57:00,53.6,49.5,30.24,SE,135,3.0,4.0,86,0.00,,,0.00,meteohub,2013-04-22 03:57:00,
2013-04-21 21:01:00,53.6,49.5,30.24,ESE,113,3.0,4.0,86,0.00,,,0.00,meteohub,2013-04-22 04:01:00,
2013-04-21 21:06:00,53.6,49.8,30.24,SE,135,3.0,4.0,87,0.00,,,0.00,meteohub,2013-04-22 04:06:00,
2013-04-21 21:11:00,53.4,50.0,30.25,SE,135,4.0,4.0,88,0.00,,,0.00,meteohub,2013-04-22 04:11:00,
2013-04-21 21:16:00,53.2,49.8,30.25,SE,135,4.0,4.0,88,0.00,,,0.00,meteohub,2013-04-22 04:16:00,
2013-04-21 21:21:00,53.2,49.8,30.24,SE,135,4.0,4.0,88,0.00,,,0.00,meteohub,2013-04-22 04:21:00,
2013-04-21 21:26:00,53.1,48.9,30.25,SE,135,8.0,8.0,86,0.00,,,0.00,meteohub,2013-04-22 04:26:00,
2013-04-21 21:31:00,52.9,48.7,30.25,SE,135,7.0,9.0,86,0.00,,,0.00,meteohub,2013-04-22 04:31:00,
2013-04-21 21:36:00,52.7,48.6,30.26,SE,135,8.0,9.0,86,0.00,,,0.00,meteohub,2013-04-22 04:36:00,
2013-04-21 21:41:00,52.5,48.4,30.25,SE,135,10.0,10.0,86,0.00,,,0.00,meteohub,2013-04-22 04:41:00,
2013-04-21 21:46:00,52.0,47.7,30.26,SE,135,11.0,11.0,85,0.00,,,0.00,meteohub,2013-04-22 04:46:00,
2013-04-21 21:51:00,51.8,47.1,30.26,SE,135,8.0,11.0,84,0.00,,,0.00,meteohub,2013-04-22 04:51:00,
2013-04-21 21:56:00,51.4,47.1,30.26,SE,135,6.0,11.0,85,0.00,,,0.00,meteohub,2013-04-22 04:56:00,
2013-04-21 22:01:00,51.4,47.5,30.26,SE,135,7.0,11.0,86,0.00,,,0.00,meteohub,2013-04-22 05:01:00,
2013-04-21 22:06:00,51.4,47.5,30.26,SE,135,7.0,8.0,86,0.00,,,0.00,meteohub,2013-04-22 05:06:00,
2013-04-21 22:12:00,51.3,47.3,30.27,SE,135,6.0,10.0,86,0.00,,,0.00,meteohub,2013-04-22 05:12:00,
2013-04-21 22:17:00,51.3,47.5,30.27,South,180,6.0,10.0,87,0.00,,,0.00,meteohub,2013-04-22 05:17:00,
2013-04-21 22:22:00,51.3,47.3,30.27,SE,135,7.0,9.0,86,0.00,,,0.00,meteohub,2013-04-22 05:22:00,
2013-04-21 22:27:00,51.1,47.1,30.27,SE,135,7.0,9.0,86,0.00,,,0.00,meteohub,2013-04-22 05:27:00,
2013-04-21 22:32:00,50.9,47.1,30.27,SE,135,7.0,9.0,87,0.00,,,0.00,meteohub,2013-04-22 05:32:00,
2013-04-21 22:37:00,50.9,47.5,30.27,SE,135,7.0,8.0,88,0.00,,,0.00,meteohub,2013-04-22 05:37:00,
2013-04-21 22:42:00,50.7,47.3,30.27,SE,135,7.0,8.0,88,0.00,,,0.00,meteohub,2013-04-22 05:42:00,
2013-04-21 22:47:00,50.5,47.5,30.27,SE,135,5.0,8.0,89,0.00,,,0.00,meteohub,2013-04-22 05:47:00,
2013-04-21 22:52:00,50.5,47.1,30.27,SE,135,8.0,8.0,88,0.00,,,0.00,meteohub,2013-04-22 05:52:00,
2013-04-21 22:57:00,50.5,46.8,30.27,SE,135,8.0,8.0,87,0.00,,,0.00,meteohub,2013-04-22 05:57:00,
2013-04-21 23:02:00,50.5,46.8,30.28,SE,135,8.0,8.0,87,0.00,,,0.00,meteohub,2013-04-22 06:02:00,
2013-04-21 23:07:00,50.4,46.4,30.28,SE,135,8.0,8.0,86,0.00,,,0.00,meteohub,2013-04-22 06:07:00,
2013-04-21 23:12:00,50.4,46.9,30.27,SE,135,5.0,9.0,88,0.00,,,0.00,meteohub,2013-04-22 06:12:00,
2013-04-21 23:17:00,50.2,46.4,30.28,SE,135,8.0,9.0,87,0.00,,,0.00,meteohub,2013-04-22 06:17:00,
2013-04-21 23:22:00,50.2,46.8,30.28,SE,135,4.0,8.0,88,0.00,,,0.00,meteohub,2013-04-22 06:22:00,
2013-04-21 23:27:00,50.0,46.9,30.28,SE,135,5.0,8.0,89,0.00,,,0.00,meteohub,2013-04-22 06:27:00,
2013-04-21 23:32:00,50.0,46.9,30.28,SE,135,5.0,8.0,89,0.00,,,0.00,meteohub,2013-04-22 06:32:00,
2013-04-21 23:37:00,49.8,46.9,30.28,SE,135,5.0,6.0,90,0.00,,,0.00,meteohub,2013-04-22 06:37:00,
2013-04-21 23:42:00,49.8,46.8,30.28,East,90,9.0,9.0,89,0.00,,,0.00,meteohub,2013-04-22 06:42:00,
2013-04-21 23:47:00,49.8,46.9,30.28,SE,135,6.0,9.0,90,0.00,,,0.00,meteohub,2013-04-22 06:47:00,
2013-04-21 23:52:00,49.8,46.9,30.28,SE,135,5.0,9.0,90,0.00,,,0.00,meteohub,2013-04-22 06:52:00,
2013-04-21 23:57:00,50.0,46.9,30.29,SE,135,7.0,9.0,89,0.00,,,0.00,meteohub,2013-04-22 06:57:00,